Weather History for Marfa, TX

Change the Weather History Date:

Tuesday, January 1, 2013

  Actual Average Record
Temperature  
Mean Temperature 34 °F -  
Max Temperature 46 °F 56 °F 71 °F (2000)
Min Temperature 21 °F 25 °F 15 °F (2008)
Degree Days  
Heating Degree Days 32    
Moisture  
Dew Point 17 °F    
Average Humidity 54    
Maximum Humidity 93    
Minimum Humidity 21    
Precipitation  
Precipitation 0.00 in - - ()
Sea Level Pressure  
Sea Level Pressure 30.15 in    
Wind  
Wind Speed 4 mph (West)    
Max Wind Speed 14 mph    
Max Gust Speed 17 mph    
Visibility 10 miles    
Events      
Averages and records for this station are not official NWS values.
T = Trace of Precipitation, MM = Missing Value Source: NWS Daily Summary

Daily Weather History Graph

Daily Weather History Graph

Search for Another Location

Airport:

Trip Planner

Search our weather history database for the weather conditions in past years. The results will help you decide how hot, cold, wet, or windy it might be!

Date:

Astronomy

Jan. 01, 2013 Rise Set
Actual Time 7:52 AM CST 6:06 PM CST
Civil Twilight 7:26 AM CST 6:33 PM CST
Nautical Twilight 6:56 AM CST 7:03 PM CST
Astronomical Twilight 6:27 AM CST 7:32 PM CST
Moon 10:20 PM CST (1/1) 10:24 AM CST (1/1)
Length of Visible Light 11h 06m
Length of Day
10h 13m
Waning Gibbous, 83% of the Moon is Illuminated
Jan 1
Waning Gibbous
Jan 4
Last Quarter
Jan 11
New
Jan 18
First Quarter
Jan 26
Full

Hourly Weather History & Observations

Time (CST) Temp. Windchill Dew Point Humidity Pressure Visibility Wind Dir Wind Speed Gust Speed Precip Events Conditions
12:15 AM 30.2 °F 25.4 °F 24.8 °F 80% 30.12 in 10.0 mi NW 4.6 mph - N/A   Clear
12:35 AM 30.2 °F 21.9 °F 24.8 °F 80% 30.12 in 10.0 mi NW 9.2 mph - N/A   Clear
1:15 AM 30.2 °F 23.4 °F 24.8 °F 80% 30.11 in 10.0 mi West 6.9 mph - N/A   Clear
1:35 AM 28.4 °F - 23.0 °F 80% 30.11 in 10.0 mi Calm Calm - N/A   Clear
1:55 AM 26.6 °F - 21.2 °F 80% 30.11 in 10.0 mi Calm Calm - N/A   Clear
2:15 AM 26.6 °F - 21.2 °F 80% 30.12 in 10.0 mi Calm Calm - N/A   Clear
2:35 AM 32.0 °F - 24.8 °F 75% 30.12 in 10.0 mi Calm Calm - N/A   Mostly Cloudy
2:55 AM 30.2 °F - 24.8 °F 80% 30.12 in 10.0 mi Calm Calm - N/A   Mostly Cloudy
3:15 AM 28.4 °F - 23.0 °F 80% 30.13 in 10.0 mi Calm Calm - N/A   Mostly Cloudy
3:35 AM 28.4 °F - 21.2 °F 74% 30.12 in 10.0 mi Calm Calm - N/A   Partly Cloudy
3:55 AM 26.6 °F - 21.2 °F 80% 30.12 in 10.0 mi Calm Calm - N/A   Clear
4:15 AM 26.6 °F - 21.2 °F 80% 30.14 in 10.0 mi Calm Calm - N/A   Clear
4:35 AM 24.8 °F - 21.2 °F 86% 30.14 in 10.0 mi Calm Calm - N/A   Clear
5:15 AM 26.6 °F - 21.2 °F 80% 30.13 in 10.0 mi Calm Calm - N/A   Clear
5:35 AM 21.2 °F - 19.4 °F 93% 30.13 in 10.0 mi Calm Calm - N/A   Clear
6:15 AM 28.4 °F 18.5 °F 21.2 °F 74% 30.13 in 10.0 mi West 11.5 mph - N/A   Clear
6:35 AM 26.6 °F 16.8 °F 21.2 °F 80% 30.14 in 10.0 mi West 10.4 mph - N/A   Clear
6:55 AM 26.6 °F 17.5 °F 21.2 °F 80% 30.15 in 10.0 mi West 9.2 mph - N/A   Clear
7:15 AM 26.6 °F 16.2 °F 19.4 °F 74% 30.15 in 10.0 mi West 11.5 mph - N/A   Clear
7:35 AM 24.8 °F 16.1 °F 19.4 °F 80% 30.16 in 10.0 mi West 8.1 mph - N/A   Clear
7:55 AM 23.0 °F 13.1 °F 17.6 °F 80% 30.16 in 10.0 mi West 9.2 mph - N/A   Clear
8:15 AM 23.0 °F 14.7 °F 19.4 °F 86% 30.18 in 10.0 mi West 6.9 mph - N/A   Clear
8:35 AM 24.8 °F - 19.4 °F 80% 30.18 in 10.0 mi Calm Calm - N/A   Clear
8:55 AM 24.8 °F - 19.4 °F 80% 30.19 in 10.0 mi Calm Calm - N/A   Clear
9:15 AM 28.4 °F - 23.0 °F 80% 30.21 in 10.0 mi Calm Calm - N/A   Clear
9:35 AM 33.8 °F - 26.6 °F 75% 30.22 in 10.0 mi Calm Calm - N/A   Clear
9:55 AM 35.6 °F - 26.6 °F 70% 30.23 in 10.0 mi Calm Calm - N/A   Clear
10:15 AM 37.4 °F 31.4 °F 24.8 °F 60% 30.24 in 10.0 mi WNW 8.1 mph - N/A   Clear
10:35 AM 39.2 °F 32.5 °F 21.2 °F 49% 30.23 in 10.0 mi WNW 10.4 mph - N/A   Clear
10:55 AM 39.2 °F 31.2 °F 19.4 °F 45% 30.23 in 10.0 mi WNW 13.8 mph - N/A   Clear
11:15 AM 41.0 °F 33.9 °F 17.6 °F 39% 30.23 in 10.0 mi WNW 12.7 mph - N/A   Clear
11:35 AM 42.8 °F 37.0 °F 15.8 °F 34% 30.22 in 10.0 mi WNW 10.4 mph 17.3 mph N/A   Clear
11:55 AM 42.8 °F 35.8 °F 15.8 °F 34% 30.22 in 10.0 mi West 13.8 mph - N/A   Clear
12:15 PM 44.6 °F 38.8 °F 12.2 °F 27% 30.21 in 10.0 mi West 11.5 mph - N/A   Clear
12:35 PM 44.6 °F 40.7 °F 15.8 °F 31% 30.18 in 10.0 mi West 6.9 mph - N/A   Clear
12:55 PM 44.6 °F 38.8 °F 12.2 °F 27% 30.17 in 10.0 mi West 11.5 mph 16.1 mph N/A   Clear
1:15 PM 44.6 °F 39.7 °F 12.2 °F 27% 30.16 in 10.0 mi West 9.2 mph 17.3 mph N/A   Clear
1:35 PM 44.6 °F 39.2 °F 14.0 °F 29% 30.15 in 10.0 mi West 10.4 mph - N/A   Clear
1:55 PM 44.6 °F 40.2 °F 14.0 °F 29% 30.15 in 10.0 mi WSW 8.1 mph - N/A   Clear
2:15 PM 44.6 °F 40.2 °F 12.2 °F 27% 30.13 in 10.0 mi West 8.1 mph - N/A   Clear
2:35 PM 44.6 °F 39.7 °F 12.2 °F 27% 30.13 in 10.0 mi West 9.2 mph - N/A   Clear
2:55 PM 46.4 °F - 10.4 °F 23% 30.14 in 10.0 mi Calm Calm - N/A   Clear
3:15 PM 46.4 °F - 8.6 °F 22% 30.14 in 10.0 mi Calm Calm - N/A   Clear
3:35 PM 46.4 °F - 8.6 °F 22% 30.14 in 10.0 mi Calm Calm - N/A   Clear
3:55 PM 44.6 °F - 8.6 °F 23% 30.13 in 10.0 mi Calm Calm - N/A   Clear
4:15 PM 46.4 °F - 8.6 °F 22% 30.13 in 10.0 mi Calm Calm - N/A   Clear
4:35 PM 44.6 °F - 8.6 °F 23% 30.13 in 10.0 mi Calm Calm - N/A   Clear
4:55 PM 44.6 °F - 6.8 °F 21% 30.13 in 10.0 mi Calm Calm - N/A   Clear
5:15 PM 44.6 °F - 6.8 °F 21% 30.13 in 10.0 mi Calm Calm - N/A   Clear
5:35 PM 42.8 °F - 8.6 °F 25% 30.13 in 10.0 mi Calm Calm - N/A   Clear
5:55 PM 41.0 °F - 8.6 °F 26% 30.14 in 10.0 mi Calm Calm - N/A   Clear
6:15 PM 39.2 °F - 10.4 °F 31% 30.14 in 10.0 mi Calm Calm - N/A   Clear
6:35 PM 35.6 °F - 10.4 °F 35% 30.13 in 10.0 mi Calm Calm - N/A   Clear
6:55 PM 35.6 °F - 12.2 °F 38% 30.14 in 10.0 mi Calm Calm - N/A   Clear
7:15 PM 33.8 °F - 12.2 °F 41% 30.14 in 10.0 mi Calm Calm - N/A   Clear
7:35 PM 33.8 °F - 14.0 °F 44% 30.14 in 10.0 mi Calm Calm - N/A   Clear
7:55 PM 33.8 °F - 14.0 °F 44% 30.14 in 10.0 mi Calm Calm - N/A   Clear
8:15 PM 33.8 °F - 14.0 °F 44% 30.14 in 10.0 mi Calm Calm - N/A   Clear
8:35 PM 33.8 °F - 14.0 °F 44% 30.15 in 10.0 mi Calm Calm - N/A   Clear
8:55 PM 33.8 °F - 15.8 °F 48% 30.15 in 10.0 mi Calm Calm - N/A   Clear
9:15 PM 33.8 °F - 15.8 °F 48% 30.15 in 10.0 mi Calm Calm - N/A   Clear
9:35 PM 32.0 °F - 15.8 °F 51% 30.15 in 10.0 mi Calm Calm - N/A   Clear
9:55 PM 32.0 °F - 15.8 °F 51% 30.15 in 10.0 mi Calm Calm - N/A   Clear
10:15 PM 30.2 °F - 17.6 °F 60% 30.15 in 10.0 mi Calm Calm - N/A   Clear
10:35 PM 30.2 °F - 17.6 °F 60% 30.16 in 10.0 mi Calm Calm - N/A   Clear
10:55 PM 30.2 °F - 17.6 °F 60% 30.16 in 10.0 mi Calm Calm - N/A   Clear
11:15 PM 28.4 °F - 19.4 °F 69% 30.16 in 10.0 mi Calm Calm - N/A   Clear
11:35 PM 30.2 °F - 17.6 °F 60% 30.17 in 10.0 mi Calm Calm - N/A   Clear
11:55 PM 33.8 °F - 19.4 °F 56% 30.17 in 10.0 mi Calm Calm - N/A   Clear